Regional Weather Roundup
Issued by NWS

Home | Current Version | Previous Version | Text Only | Print | Product List | Glossary On
Versions: 1 2 3 4 5 6 7 8 9 10 11 12 13 14 15 16 17 18 19 20 21 22 23 24 25 26 27 28 29 30 31 32 33 34 35 36 37 38 39 40 41 42 43 44 45 46 47 48 49 50
000
ASUS44 KFWD 260403
RWRTX
NORTH TEXAS HOURLY WEATHER ROUNDUP
NATIONAL WEATHER SERVICE FORT WORTH TX
1100 PM CDT SAT OCT 25 2014

NOTE: "FAIR" INDICATES FEW OR NO CLOUDS BELOW 12,000 FEET WITH NO
SIGNIFICANT WEATHER AND/OR OBSTRUCTIONS TO VISIBILITY.

TXZ118-119-260500-
DALLAS/FORT WORTH METROPLEX

CITY           SKY/WX    TMP DP  RH WIND       PRES   REMARKS
DFW AIRPORT    CLEAR     73  60  63 S9        30.04F
DALLAS LOVE    CLEAR     74  60  61 S8        30.05S
FTW MEACHAM    CLEAR     76  60  57 S9        30.04F
DAL-EXECUTIVE  CLEAR     76  59  55 VRB5      30.05F
FTW-ALLIANCE   CLEAR     71  60  68 S6        30.04F
FTW-NAS-JRB    CLEAR     75  59  57 S7        30.09S
FTW-SPINKS     CLEAR     72  59  64 S5        30.07S
ARLINGTON      CLEAR     73  59  61 S7        30.06S
GRAND PRAIRIE  CLEAR     74  61  64 S5        30.07S
ADDISON        CLEAR     76  63  63 S7        30.07S
MESQUITE       CLEAR     69  61  77 S5        30.06F
LANCASTER      CLEAR     70  58  66 CALM      30.07S
$$

TXZ091>094-102>105-117-120-121-131>134-260500-
NORTH CENTRAL TEXAS

CITY           SKY/WX    TMP DP  RH WIND       PRES   REMARKS
SHRMAN/DENISON CLEAR     73  63  71 S12       30.05S
GAINESVILLE    CLEAR     69  60  73 SE3       30.06F
BRIDGEPORT     CLEAR     75  60  59 S8        30.06S
DECATUR        CLEAR     75  58  55 S14       30.05F
DENTON         CLEAR     70  60  70 S8        30.04S
MCKINNEY       CLEAR     67  61  81 S7        30.05F
GREENVILLE     CLEAR     68  61  77 S5        30.06S
ROCKWALL       CLEAR     71  62  73 S12       30.05F
TERRELL        CLEAR     70  63  78 S5        30.07S
WAXAHACHIE     CLEAR     70  60  71 S5        30.08S
CLEBURNE       CLEAR     72  63  73 S7        30.08F
GRANBURY       CLEAR     75  59  58 SE6       30.07S
$$

TXZ083>090-098>101-113>116-127>130-139>142-154-155-260500-
WESTERN NORTH TEXAS

CITY           SKY/WX    TMP DP  RH WIND       PRES   REMARKS
WICHITA FALLS  CLEAR     69  57  65 S10       30.01S
WF-KICKAPOO    CLEAR     67  56  67 S7        30.03S
VERNON         CLEAR     70  52  52 SW7       30.02S
ABILENE        CLEAR     73  53  49 S12       30.08S
ABILENE-DYESS  CLEAR     70  52  53 S6        30.07S
MINERAL WELLS  CLEAR     69  58  67 SE10      30.04S
STEPHENVILLE   CLEAR     68  58  70 S5        30.11S
COMANCHE       CLEAR     71  57  62 S8        30.09S
COLEMAN        CLEAR     70  56  61 S6        30.09S
BRADY          CLEAR     70  54  56 SE5       30.11S
$$

TXZ143>147-156>162-174-175-260500-
CENTRAL TEXAS

CITY           SKY/WX    TMP DP  RH WIND       PRES   REMARKS
WACO           CLEAR     70  62  76 S7        30.08S
WACO-TSTC      CLEAR     66  61  82 CALM      30.08S
WACO-MCGREGOR  CLEAR     70  55  60 S8        30.09S
HILLSBORO      CLEAR     74  59  58 S9        30.08S
CORSICANA      CLEAR     69  61  75 S7        30.08F
MEXIA          CLEAR     67  63  85 S5        30.08F
HEARNE         CLEAR     66  61  85 SE3       30.10S HAZE
CAMERON        CLEAR     72  61  67 S6        30.09S
TEMPLE         CLEAR     70  55  60 S8        30.08S
KILLEEN        CLEAR     69  58  67 S7        30.10S
KILLEEN-SKYLRK CLEAR     72  55  56 S7        30.08R
FORT HOOD      CLEAR     73  59  61 SE5       30.09F
GATESVILLE     CLEAR     70  57  64 S5        30.11S
HAMILTON       CLEAR     67  57  70 S8        30.10F
LAMPASAS       CLEAR     71  61  70 CALM      30.09S
$$

TXZ095>097-106>112-122>126-135>138-148>153-164>167-260500-
EAST TEXAS

CITY           SKY/WX    TMP DP  RH WIND       PRES   REMARKS
PARIS          CLEAR     68  57  68 S5        30.06S
SULPHUR SPRNGS CLEAR     71  62  72 S6        30.08S
MOUNT PLEASANT CLEAR     67  65  93 CALM      30.08S
MINEOLA        CLEAR     73  64  73 S3        30.08S
TYLER          CLEAR     67  63  87 S7        30.08S
LONGVIEW       CLEAR     67  63  87 S7        30.07S
MARSHALL       CLEAR     66  64  92 CALM      30.09F
ATHENS         CLEAR     63  61  94 CALM      30.07S
PALESTINE      CLEAR     70  64  81 SE3       30.09S
JACKSONVILLE   CLEAR     72  63  74 S5        30.11S
HENDERSON      CLEAR     64  64 100 CALM      30.10S FOG
NACOGDOCHES    CLEAR     63  61  94 CALM      30.10S
LUFKIN         CLEAR     67  62  84 CALM      30.09F
$$

SUPPLEMENTAL OBSERVATIONS (CENTRAL)

CITY           SKY/WX    TMP DP  RH WIND       PRES   REMARKS
$$

SUPPLEMENTAL OBSERVATIONS (WEST)

CITY           SKY/WX    TMP DP  RH WIND       PRES   REMARKS
$$

SUPPLEMENTAL OBSERVATIONS (EAST)

CITY           SKY/WX    TMP DP  RH WIND       PRES   REMARKS
$$

SUPPLEMENTAL OBSERVATIONS ARE A COLLECTION OF AUTOMATED INSTRUMENTS
THAT ARE MAINTAINED BY A VARIETY OF FEDERAL AND STATE AGENCIES.
CERTAIN ELEMENTS...SUCH AS HUMIDITY VALUES AND SUSTAINED WIND
SPEEDS...MAY BE APPROXIMATED.




USA.gov is the U.S. government's official web portal to all federal, state and local government web resources and services.